Theta_e
305 306 307 309 309 309 308 309 307 308 308 309 310 313 318 321 321 320 319 319 319 318
306 306 307 306 307 305 303 304 303 303 304 304 306 309 314 315 315 312 312 313 314 313
302 303 303 304 301 300 299 299 299 300 300 300 301 304 308 309 309 307 307 307 307 306
299 299 299 298 297 297 297 297 297 297 297 297 297 299 301 302 302 301 301 301 301 300
297 297 296 296 295 296 295 295 295 295 294 294 295 295 297 296 296 296 296 296 296 295
295 295 294 294 294 295 294 294 294 294 293 292 292 292 293 293 293 293 293 293 293 293
293 293 294 294 294 294 293 293 293 294 293 291 291 291 291 292 292 292 292 293 294 293
293 293 294 294 293 293 293 293 293 293 293 293 292 291 291 291 291 290 290 290 291 292
294 294 294 294 293 293 293 293 293 292 292 292 293 293 293 291 289 288 287 287 287 288
293 293 292 292 291 291 291 291 291 291 291 291 292 292 291 289 285 283 283 284 285 285
292 292 291 290 289 289 290 289 289 288 288 290 291 291 289 285 281 281 281 281 281 284
292 291 290 288 288 288 288 287 286 285 284 284 286 289 287 283 281 281 281 282 284 285
291 290 288 288 287 288 287 286 284 282 281 285 283 288 286 283 282 280 281 282 283 286
291 289 288 287 287 286 285 283 281 281 280 281 284 284 288 286 282 282 281 282 282 283
Wind_Speed
3 1 1 1 0 1 1 2 4 4 4 5 5 4 5 2 2 3 3 5 4 3
1 0 1 2 2 2 3 3 4 4 4 5 5 5 4 2 4 5 5 4 4 2
3 3 3 3 3 3 3 4 4 4 5 5 6 6 4 3 5 5 5 4 6 6
3 4 4 4 3 3 4 4 5 4 5 6 6 6 6 7 6 7 7 7 6 7
3 3 4 3 3 3 4 4 5 5 5 6 6 6 6 7 7 7 7 6 6 7
4 4 4 3 4 5 5 5 6 6 6 6 6 7 8 8 9 9 9 8 9 7
4 4 4 4 4 5 6 6 6 6 6 6 6 6 7 8 8 8 8 8 8 7
5 6 6 6 5 5 6 6 6 7 7 7 6 4 6 8 8 8 8 7 7 8
6 6 5 6 6 5 5 6 7 7 8 7 6 11 11 9 7 8 7 6 6 7
6 5 5 5 5 6 5 5 7 7 7 8 8 12 12 12 7 7 6 5 4 4
6 5 5 5 6 5 5 6 6 5 5 6 7 12 13 12 6 5 5 4 3 3
6 6 6 6 6 5 5 5 5 4 5 5 4 11 11 9 5 5 4 3 1 2
6 6 6 6 5 4 5 5 5 4 3 6 3 8 8 7 4 4 3 1 1 3
6 7 7 6 3 4 5 5 4 5 3 3 2 1 8 8 3 3 3 2 1 0
Wind_Direction
21 338 312 357 71 44 0 350 352 347 346 348 341 335 309 290 287 252 221 203 205 199
57 187 164 113 104 86 34 8 12 11 8 4 357 350 337 33 45 57 39 37 58 75
99 98 94 105 94 71 49 36 35 34 33 26 21 18 23 45 47 72 54 50 71 66
108 98 96 94 79 71 59 52 59 52 51 43 37 33 59 60 51 68 65 56 66 64
118 113 116 116 102 93 84 70 73 73 71 62 57 53 68 74 65 68 64 56 64 59
142 136 123 118 116 102 97 84 78 74 70 70 66 72 74 80 81 77 71 65 65 61
159 136 128 119 110 109 108 102 89 81 81 75 76 81 90 95 94 88 77 67 69 72
156 151 152 136 122 113 111 110 103 99 89 89 92 94 102 102 97 95 84 66 60 53
173 176 164 149 141 132 120 111 107 96 96 95 94 108 100 95 92 91 96 85 63 57
167 166 157 142 138 135 127 116 104 99 103 101 99 101 102 97 94 95 102 103 95 83
163 153 150 140 135 131 122 115 111 100 90 102 102 102 106 101 93 92 87 99 104 95
160 156 149 148 139 133 124 115 108 112 120 107 87 120 123 115 114 105 93 90 122 77
157 158 150 146 141 138 134 123 130 133 104 128 125 137 137 131 132 126 124 114 31 5
157 150 146 141 138 127 136 133 150 132 134 133 132 188 145 141 147 129 140 161 182 25